Wind_Speed
29 29 28 26 25 24 24 22 21 18 17 16 15 14 13 13 12 12 12 12 12 13 13 13 13 13 12 12 12 11 10 10 10 10 11 11 12 12 13 14 15 16 16 17
31 30 29 29 28 26 25 24 22 21 20 19 17 16 15 15 14 13 13 14 14 14 14 14 14 14 14 14 13 12 12 12 12 11 11 12 12 13 14 15 16 16 17 18
32 31 31 32 29 27 26 24 23 22 21 21 19 18 17 16 15 14 15 16 16 17 16 17 17 16 15 15 14 14 13 13 13 14 14 14 15 15 16 17 17 17 18 19
34 34 34 31 30 29 27 26 25 24 24 23 21 20 19 18 18 17 17 18 19 19 18 18 19 19 18 17 16 15 15 15 15 16 16 16 17 18 18 18 18 19 19 19
38 36 35 35 32 29 28 28 27 26 25 24 23 22 21 20 20 20 20 20 20 20 20 20 20 20 19 19 18 17 17 17 17 17 17 18 18 19 19 20 20 20 20 21
42 38 34 35 34 31 30 31 29 27 26 25 24 23 24 23 23 23 23 23 22 22 23 23 22 22 22 21 21 20 20 19 19 19 18 19 19 20 20 21 22 22 22 23
43 41 37 39 36 33 33 32 31 30 29 28 28 27 27 26 26 26 26 25 25 25 25 25 25 25 24 24 24 23 22 21 21 21 21 21 21 21 21 22 23 23 23 24
45 43 40 42 39 37 36 35 33 32 32 31 30 30 29 29 29 28 28 28 28 28 28 27 27 28 27 27 26 26 24 23 23 24 23 23 23 23 23 23 24 24 25 25
47 45 44 43 41 38 37 37 36 35 34 33 33 32 31 31 30 30 30 30 30 30 30 30 30 30 30 28 29 28 27 26 26 26 26 25 25 24 24 25 25 26 27 27
49 48 46 44 42 41 39 38 38 37 37 36 35 34 33 32 32 32 32 32 32 32 32 32 33 33 32 31 31 31 30 29 29 29 28 27 27 27 26 27 27 28 28 29
49 49 47 46 45 43 42 41 40 39 38 37 37 36 35 34 34 34 34 33 33 33 33 33 33 34 35 34 33 33 32 31 31 31 30 30 29 28 28 29 29 30 31 31
49 49 48 47 46 45 44 43 42 41 39 39 37 36 36 36 35 35 35 34 34 35 34 34 34 34 35 34 33 33 32 31 31 31 31 31 31 31 30 31 32 32 33 34
45 46 46 46 46 45 44 44 42 41 40 39 37 36 36 36 35 35 35 35 35 35 34 34 34 33 33 34 34 33 33 33 33 33 33 32 33 33 33 33 33 33 34 35
41 42 43 43 43 43 43 42 42 41 40 39 38 37 36 35 35 35 35 34 34 34 34 34 33 33 34 34 34 34 34 34 34 34 34 34 35 35 35 35 35 35 36 36
39 39 40 40 40 40 40 40 40 40 40 39 38 37 36 36 35 35 35 35 34 34 34 34 35 35 35 35 35 35 36 36 36 36 36 36 37 37 37 37 37 37 38 38
36 36 37 37 37 37 38 38 38 38 38 38 38 37 37 36 36 36 36 35 35 35 35 35 35 35 35 35 35 36 36 36 37 37 38 38 38 37 37 38 38 38 38 38
34 34 35 35 35 35 36 36 36 37 37 37 37 36 36 36 35 35 35 35 35 36 36 36 36 35 35 35 35 36 36 36 37 37 37 38 38 38 38 37 37 37 37 37
33 33 34 34 33 33 34 35 36 36 36 35 35 36 35 34 33 33 33 34 34 35 35 35 36 36 35 35 36 36 36 37 37 37 37 37 37 37 36 36 36 35 35 34
31 31 32 32 33 33 33 32 33 33 33 34 34 34 34 34 34 34 34 34 34 35 35 35 36 36 36 36 35 35 35 36 36 36 35 35 35 35 35 35 35 34 33 33
29 29 29 30 30 31 32 32 32 32 32 33 34 34 33 33 34 34 34 34 34 34 35 35 35 35 34 34 34 34 34 34 34 34 34 34 34 34 34 33 33 32 32 31
26 26 27 28 28 29 29 30 30 30 30 30 31 31 31 31 31 32 33 33 33 33 34 33 33 33 33 33 33 33 33 33 33 33 33 33 32 32 32 31 31 30 29 29
24 25 25 26 26 26 26 26 27 27 27 27 28 29 29 30 30 31 31 31 31 32 32 32 31 31 32 32 32 31 31 31 31 31 31 31 30 29 29 28 28 27 27 26
20 21 22 22 22 23 24 23 24 24 24 25 26 26 27 27 28 28 29 29 29 29 30 30 30 30 30 30 29 29 29 29 29 29 28 28 27 26 26 26 26 25 25 25
16 17 18 19 20 20 21 21 22 22 22 22 23 23 23 23 24 24 25 25 26 26 27 27 27 27 27 27 27 27 27 26 26 26 25 25 25 25 25 25 25 24 24 25
12 13 14 16 17 17 18 19 20 19 19 19 19 19 20 21 21 21 21 21 22 23 23 24 25 25 25 25 25 24 24 23 23 23 23 23 24 24 24 24 24 25 26 26
9 10 11 12 13 13 14 15 16 16 16 16 16 17 17 17 17 17 17 18 19 19 20 20 21 22 22 21 21 20 19 20 20 21 22 23 24 24 24 24 25 26 26 27
7 8 9 10 11 11 12 12 13 14 14 14 14 14 14 14 14 15 15 16 16 17 17 17 18 18 18 19 20 21 21 22 23 23 24 24 24 25 25 25 26 27 28 28
Wind_Direction
234 239 244 245 244 244 245 246 248 253 254 258 263 266 269 273 275 277 279 289 298 300 299 305 310 313 313 310 304 300 297 295 290 289 279 276 275 274 272 268 264 263 265 265
236 239 242 243 243 243 244 246 248 249 252 256 262 264 267 270 272 273 277 284 293 297 296 300 303 306 307 308 302 296 293 291 290 289 283 279 275 275 274 275 272 269 268 269
237 238 240 241 242 244 245 246 248 249 251 254 260 262 264 266 268 271 277 283 288 290 291 296 298 300 301 303 299 294 291 289 289 287 284 281 277 274 274 275 276 274 273 272
234 237 238 241 240 241 243 245 247 248 250 254 257 258 260 263 265 269 275 282 286 287 288 292 296 298 296 297 298 294 291 289 292 291 285 283 281 277 274 274 276 276 276 276
234 238 240 240 240 239 242 244 246 248 251 255 257 258 258 260 263 267 271 277 282 283 285 288 291 294 295 294 295 295 293 291 292 291 288 285 283 282 277 275 276 277 277 279
234 235 237 243 240 238 241 243 244 246 250 253 256 259 260 260 263 265 268 272 276 278 280 284 287 289 289 290 292 293 291 291 291 292 290 289 286 283 281 278 276 276 278 280
235 236 237 240 239 238 240 244 245 246 250 253 256 258 262 263 263 265 267 270 274 275 277 280 282 284 285 286 287 290 290 291 291 292 290 289 287 284 283 281 278 276 278 280
236 237 238 240 240 240 242 245 247 249 251 254 256 259 262 263 264 265 267 270 272 274 275 277 279 280 282 282 282 284 287 288 289 289 288 288 287 284 282 282 280 278 278 279
235 237 239 242 243 243 244 246 248 250 253 255 258 260 263 265 265 265 267 269 270 271 273 274 275 276 281 281 281 282 283 284 286 289 288 287 286 284 283 282 282 280 279 279
236 238 240 243 244 245 247 248 250 252 254 257 260 262 264 265 266 267 268 269 269 270 272 273 272 272 276 278 278 279 280 279 281 284 285 285 285 284 283 282 281 280 279 280
235 238 240 242 244 246 248 250 251 253 255 258 260 262 263 264 265 267 268 269 269 270 271 272 273 274 275 277 278 279 278 277 277 279 281 282 282 282 283 282 283 282 281 281
234 237 239 241 243 246 248 250 252 255 257 259 261 262 263 264 265 266 267 267 268 269 270 271 273 275 277 276 277 277 276 276 275 276 278 280 280 280 281 282 282 281 281 280
235 237 239 241 243 245 248 250 252 254 256 259 260 261 262 263 264 266 266 267 268 267 268 270 272 274 276 276 276 276 275 275 275 276 277 278 278 279 280 281 281 280 279 279
235 236 238 240 242 244 246 249 250 252 254 255 257 258 259 260 262 264 266 268 267 267 267 270 272 274 276 276 274 275 275 275 276 276 277 278 278 278 279 280 280 279 278 278
234 236 238 240 242 244 245 247 248 249 251 252 254 256 258 259 260 262 264 265 265 266 267 269 272 274 274 275 275 274 275 275 276 276 276 277 278 278 279 279 279 279 278 278
233 235 236 237 239 241 243 244 246 248 249 251 252 253 254 257 259 261 261 262 264 265 266 269 272 273 274 274 274 274 274 274 274 274 275 276 278 279 279 279 279 279 278 277
230 232 234 236 238 240 242 243 245 247 249 250 251 252 254 256 257 258 260 262 265 266 267 269 271 272 273 274 275 275 275 275 275 276 276 277 278 278 278 278 278 278 278 277
229 231 232 235 238 240 242 244 246 247 248 249 250 253 254 255 256 257 260 261 264 266 269 270 271 271 272 274 275 275 275 276 277 276 276 277 278 278 278 278 278 278 277 276
229 231 232 235 238 240 241 244 246 247 248 249 250 251 253 255 255 257 259 261 264 266 268 270 271 272 274 274 274 275 276 276 277 277 277 277 278 278 277 278 276 275 276 276
228 230 233 234 236 238 240 243 246 247 247 249 251 252 253 254 255 258 260 263 265 267 268 269 270 272 274 274 275 275 275 275 276 277 277 278 278 277 276 276 275 274 274 275
226 228 232 235 238 240 242 245 246 247 248 250 251 253 254 256 258 260 261 263 265 266 268 269 270 271 272 274 274 274 274 275 276 277 278 278 277 276 276 275 274 274 275 275
227 230 233 236 237 239 242 243 244 245 247 249 250 252 254 257 259 259 261 263 264 265 267 269 271 271 272 274 275 275 275 276 277 277 277 276 275 274 274 275 275 275 276 277
226 229 232 234 234 235 238 241 242 243 245 248 250 253 255 256 259 261 262 263 264 265 267 269 270 271 272 274 275 275 275 275 276 276 275 275 274 274 274 274 274 275 276 276
221 226 229 230 231 234 237 240 243 245 247 249 251 253 255 258 260 261 262 264 264 266 268 270 271 272 272 274 275 275 275 274 274 275 273 271 272 273 274 274 273 273 274 277
214 220 225 228 231 233 236 239 241 242 244 247 249 252 256 259 261 261 263 265 267 269 270 271 271 272 273 274 274 274 274 274 276 275 274 274 275 276 276 276 275 277 278 279
205 212 218 225 229 231 233 237 238 240 245 248 251 254 256 258 260 263 265 268 271 272 273 273 274 275 274 272 272 273 274 276 278 279 279 280 280 279 280 281 281 281 281 282
203 210 216 221 226 229 232 234 237 240 244 247 252 255 259 262 265 268 271 274 275 275 275 276 277 276 275 275 275 276 278 279 280 281 281 281 282 282 282 282 283 283 283 283
Height
5870 5872 5875 5878 5881 5883 5886 5889 5892 5894 5894 5895 5894 5894 5894 5894 5893 5893 5892 5892 5891 5890 5888 5886 5885 5883 5881 5880 5878 5876 5875 5874 5872 5871 5870 5870 5870 5870 5870 5870 5870 5870 5869 5869
5863 5866 5869 5871 5874 5877 5880 5883 5885 5887 5889 5889 5890 5890 5890 5890 5889 5889 5889 5888 5887 5886 5885 5884 5882 5880 5879 5877 5875 5874 5873 5872 5870 5869 5868 5867 5867 5867 5867 5866 5866 5865 5865 5865
5856 5859 5861 5864 5868 5871 5874 5876 5879 5881 5884 5883 5884 5885 5885 5885 5885 5885 5885 5884 5883 5882 5881 5880 5879 5877 5876 5874 5873 5871 5870 5869 5868 5867 5866 5865 5864 5863 5863 5862 5862 5861 5860 5860
5849 5851 5854 5860 5862 5865 5868 5870 5873 5874 5876 5877 5878 5879 5880 5880 5880 5880 5880 5880 5879 5878 5877 5876 5875 5873 5872 5871 5869 5868 5867 5866 5864 5863 5862 5861 5860 5859 5859 5858 5857 5856 5855 5855
5840 5843 5847 5851 5854 5858 5861 5863 5866 5868 5869 5871 5872 5873 5874 5874 5874 5875 5875 5874 5874 5873 5872 5871 5870 5869 5868 5867 5865 5864 5863 5862 5860 5859 5858 5856 5855 5854 5854 5853 5852 5851 5850 5849
5831 5836 5841 5844 5847 5851 5855 5856 5858 5860 5862 5864 5865 5867 5867 5868 5868 5868 5868 5868 5868 5868 5867 5866 5865 5864 5863 5862 5861 5860 5858 5857 5855 5854 5852 5851 5850 5849 5848 5847 5846 5845 5845 5844
5820 5826 5832 5833 5838 5843 5847 5849 5851 5853 5855 5856 5858 5859 5860 5860 5860 5861 5861 5862 5862 5861 5861 5860 5859 5859 5858 5857 5855 5854 5852 5852 5850 5849 5847 5846 5845 5843 5842 5841 5840 5839 5838 5837
5811 5816 5823 5823 5829 5834 5837 5839 5842 5844 5846 5848 5849 5850 5851 5852 5853 5853 5854 5854 5854 5854 5854 5854 5853 5852 5851 5850 5849 5848 5847 5846 5845 5843 5842 5840 5838 5837 5836 5834 5833 5832 5831 5830
5801 5807 5810 5814 5819 5823 5827 5830 5832 5835 5837 5839 5840 5842 5843 5844 5844 5845 5845 5846 5846 5846 5846 5846 5845 5844 5844 5843 5842 5841 5840 5839 5838 5837 5835 5834 5832 5830 5829 5827 5826 5825 5824 5823
5790 5795 5800 5804 5808 5813 5816 5820 5823 5825 5828 5829 5831 5833 5834 5835 5835 5836 5837 5837 5837 5837 5837 5837 5837 5836 5835 5835 5833 5833 5832 5831 5830 5829 5828 5826 5825 5823 5822 5820 5819 5817 5816 5815
5779 5784 5789 5794 5798 5802 5806 5809 5812 5815 5817 5819 5821 5823 5824 5825 5826 5827 5828 5828 5828 5828 5828 5828 5828 5827 5826 5825 5825 5824 5823 5822 5822 5821 5820 5818 5817 5815 5814 5813 5811 5810 5808 5807
5768 5773 5778 5783 5787 5791 5795 5798 5802 5805 5807 5809 5811 5813 5814 5815 5816 5817 5818 5818 5819 5819 5819 5819 5819 5818 5817 5816 5816 5815 5814 5813 5812 5812 5811 5810 5808 5807 5805 5804 5802 5801 5799 5798
5758 5762 5767 5772 5776 5780 5784 5788 5791 5794 5797 5799 5800 5802 5804 5805 5806 5807 5808 5808 5809 5809 5809 5809 5809 5809 5808 5807 5807 5806 5805 5804 5803 5802 5801 5800 5799 5797 5796 5795 5793 5791 5789 5788
5747 5752 5757 5761 5766 5770 5773 5777 5780 5783 5786 5788 5790 5792 5793 5795 5796 5797 5797 5798 5799 5799 5799 5800 5800 5799 5799 5798 5797 5796 5795 5794 5793 5792 5791 5790 5789 5787 5786 5784 5783 5781 5779 5777
5737 5742 5747 5751 5755 5759 5763 5766 5769 5772 5775 5777 5780 5782 5783 5785 5786 5787 5788 5788 5789 5789 5789 5790 5790 5789 5789 5788 5787 5786 5785 5784 5783 5782 5781 5779 5778 5776 5775 5773 5772 5770 5768 5766
5728 5732 5736 5741 5745 5749 5752 5755 5759 5762 5764 5767 5769 5771 5773 5774 5776 5777 5778 5778 5779 5779 5779 5780 5779 5779 5778 5777 5777 5776 5775 5774 5773 5771 5770 5768 5767 5765 5764 5762 5760 5758 5757 5755
5719 5723 5727 5731 5735 5739 5742 5745 5748 5751 5754 5756 5758 5760 5762 5764 5765 5766 5767 5768 5769 5769 5769 5769 5769 5768 5768 5767 5766 5765 5764 5763 5762 5760 5759 5757 5756 5754 5752 5751 5749 5747 5746 5744
5710 5714 5718 5722 5726 5729 5733 5736 5738 5741 5744 5746 5748 5750 5752 5753 5754 5756 5757 5758 5758 5759 5759 5759 5758 5757 5757 5756 5755 5754 5753 5752 5750 5749 5747 5746 5744 5743 5741 5739 5738 5736 5734 5733
5702 5706 5710 5713 5717 5720 5723 5726 5729 5731 5734 5736 5738 5740 5742 5743 5744 5746 5747 5747 5748 5748 5748 5748 5747 5747 5746 5745 5744 5743 5742 5741 5739 5738 5736 5735 5733 5732 5730 5728 5727 5726 5724 5723
5695 5698 5702 5705 5709 5712 5715 5717 5720 5722 5724 5727 5728 5730 5732 5733 5734 5735 5736 5737 5737 5737 5737 5737 5737 5736 5736 5735 5733 5732 5731 5730 5729 5727 5726 5724 5722 5721 5719 5718 5717 5715 5714 5713
5688 5692 5695 5698 5701 5704 5707 5709 5711 5714 5716 5718 5720 5721 5722 5723 5725 5725 5726 5727 5727 5727 5727 5727 5726 5726 5725 5724 5723 5722 5721 5720 5718 5717 5715 5714 5712 5711 5710 5708 5707 5706 5705 5703
5682 5685 5688 5691 5694 5697 5699 5702 5704 5706 5708 5710 5711 5712 5714 5715 5715 5716 5717 5717 5717 5717 5717 5717 5716 5716 5715 5714 5713 5712 5710 5709 5708 5707 5705 5704 5703 5701 5700 5699 5698 5697 5696 5694
5677 5679 5682 5685 5687 5690 5693 5695 5697 5699 5701 5702 5703 5705 5706 5706 5707 5707 5708 5708 5708 5708 5708 5707 5707 5706 5705 5704 5703 5702 5701 5700 5699 5697 5696 5695 5694 5693 5692 5690 5689 5688 5687 5686
5673 5675 5678 5680 5682 5685 5687 5689 5691 5693 5694 5695 5697 5698 5699 5699 5699 5700 5700 5700 5699 5699 5699 5698 5698 5697 5696 5696 5694 5693 5692 5691 5690 5689 5688 5686 5685 5684 5683 5682 5681 5680 5679 5678
5670 5672 5674 5676 5678 5680 5682 5683 5685 5687 5688 5690 5691 5691 5692 5693 5693 5693 5692 5692 5692 5692 5691 5691 5690 5689 5688 5687 5686 5685 5684 5683 5682 5681 5680 5679 5678 5677 5675 5674 5673 5672 5671 5669
5668 5670 5672 5673 5675 5676 5678 5680 5681 5683 5684 5685 5686 5686 5686 5687 5687 5687 5686 5686 5685 5685 5684 5683 5682 5682 5681 5680 5679 5678 5677 5676 5675 5674 5673 5671 5670 5669 5668 5666 5665 5664 5662 5661
5667 5669 5670 5671 5673 5674 5675 5676 5678 5679 5680 5681 5681 5682 5682 5682 5681 5681 5681 5680 5679 5679 5678 5677 5676 5675 5674 5674 5673 5672 5671 5669 5668 5667 5665 5664 5662 5661 5660 5658 5656 5655 5653 5652